Location: Antioch Baptist Church
(32.6696°N, 85.7327°W)
Time: 21:10:09
(UTC+00:00)

Cosmos 1140 Rocket - Pass Details

Date: 14 July 2020
Orbit: 744 x 768 km, 74.1° (Epoch: 13 August)

Event Time Altitude Azimuth Distance (km) Brightness Sun altitude
Exits shadow 07:32:18 49° 346° (NNW) 977 4.2 -30.4°
Drops below altitude 10° 07:36:14 10° 10° (N) 2,300 6.8 -30.0°
Sets 07:38:39 0° 14° (NNE) 3,233 7.8 -29.7°
